Location: ????????
(55.3939°N, 37.4780°E)
Time: 01:35:07
(UTC+00:00)

SL-8 Rocket - Pass Details

Date: 14 April 2026
Orbit: 957 x 989 km, 82.9° (Epoch: 20 May)

Event Time Altitude Azimuth Distance (km) Brightness Sun altitude
Rises 17:13:21 0° 165° (SSE) 3,661 6.6 -6.1°
Reaches altitude 10° 17:15:56 10° 160° (SSE) 2,723 5.9 -6.4°
Maximum altitude 17:21:49 45° 90° (E) 1,311 4.4 -7.2°
Drops below altitude 10° 17:27:46 10° 19° (NNE) 2,758 6.5 -7.9°
Sets 17:30:24 0° 14° (NNE) 3,713 7.3 -8.2°
